TimeCDT,TemperatureF,Dew PointF,Humidity,Sea Level PressureIn,VisibilityMPH,Wind Direction,Wind SpeedMPH,Gust SpeedMPH,PrecipitationIn,Events,Conditions,WindDirDegrees,DateUTC
12:53 AM,53.1,46.0,77,30.06,10.0,Calm,Calm,-,N/A,,Clear,0,2013-10-07 05:53:00
1:53 AM,51.1,46.0,83,30.06,10.0,Calm,Calm,-,N/A,,Clear,0,2013-10-07 06:53:00
2:53 AM,52.0,45.0,77,30.06,10.0,Calm,Calm,-,N/A,,Clear,0,2013-10-07 07:53:00
3:53 AM,51.1,45.0,80,30.06,10.0,Calm,Calm,-,N/A,,Clear,0,2013-10-07 08:53:00
4:53 AM,51.1,44.1,77,30.07,10.0,NW,3.5,-,N/A,,Clear,320,2013-10-07 09:53:00
5:53 AM,51.1,44.1,77,30.08,10.0,NW,4.6,-,N/A,,Clear,320,2013-10-07 10:53:00
6:53 AM,48.0,44.1,86,30.09,10.0,Calm,Calm,-,N/A,,Clear,0,2013-10-07 11:53:00
7:53 AM,48.9,46.0,90,30.10,10.0,Calm,Calm,-,N/A,,Clear,0,2013-10-07 12:53:00
8:53 AM,57.0,46.9,69,30.12,10.0,NW,3.5,-,N/A,,Clear,320,2013-10-07 13:53:00
9:53 AM,66.0,50.0,56,30.14,10.0,Variable,3.5,-,N/A,,Clear,0,2013-10-07 14:53:00
10:53 AM,73.0,46.0,38,30.14,10.0,NNW,8.1,-,N/A,,Clear,340,2013-10-07 15:53:00
11:53 AM,77.0,39.9,26,30.14,10.0,North,5.8,-,N/A,,Clear,360,2013-10-07 16:53:00
12:53 PM,78.1,37.9,24,30.12,10.0,North,8.1,-,N/A,,Clear,350,2013-10-07 17:53:00
1:53 PM,79.0,42.1,27,30.09,10.0,North,5.8,-,N/A,,Clear,350,2013-10-07 18:53:00
2:53 PM,80.1,39.0,23,30.07,10.0,WNW,9.2,-,N/A,,Clear,300,2013-10-07 19:53:00
3:53 PM,80.1,37.9,22,30.06,10.0,North,8.1,-,N/A,,Clear,360,2013-10-07 20:53:00
4:53 PM,79.0,37.0,22,30.04,10.0,NNW,8.1,-,N/A,,Clear,330,2013-10-07 21:53:00
5:53 PM,78.1,37.9,24,30.03,10.0,NNW,3.5,-,N/A,,Clear,340,2013-10-07 22:53:00
6:53 PM,71.1,42.1,35,30.04,10.0,Calm,Calm,-,N/A,,Clear,0,2013-10-07 23:53:00
7:53 PM,64.0,46.0,52,30.05,10.0,Calm,Calm,-,N/A,,Clear,0,2013-10-08 00:53:00
8:53 PM,57.9,46.0,65,30.06,10.0,Calm,Calm,-,N/A,,Clear,0,2013-10-08 01:53:00
9:53 PM,55.9,48.9,77,30.08,10.0,Calm,Calm,-,N/A,,Clear,0,2013-10-08 02:53:00
10:53 PM,55.9,46.9,72,30.09,10.0,Calm,Calm,-,N/A,,Clear,0,2013-10-08 03:53:00
11:53 PM,53.1,48.0,83,30.08,10.0,Calm,Calm,-,N/A,,Clear,0,2013-10-08 04:53:00